Regional Weather Roundup
Issued by NWS

Home | Current Version | Previous Version | Graphics & Text | Print | Product List | Glossary On
Versions: 1 2 3 4 5 6 7 8 9 10 11 12 13 14 15 16 17 18 19 20 21 22 23 24 25 26 27 28 29 30 31 32 33 34 35 36 37 38 39 40 41 42 43 44 45 46 47 48 49 50
000
ASUS43 KLMK 291210
RWRKY
KENTUCKY REGIONAL WEATHER ROUNDUP
NATIONAL WEATHER SERVICE LOUISVILLE KY
800 AM EDT TUE JUL 29 2014

NOTE "FAIR" INDICATES FEW OR NO CLOUDS BELOW 12,000 FEET
WITH NO SIGNIFICANT WEATHER AND/OR OBSTRUCTIONS TO VISIBILITY.

KYZ001>023-026-027-061>063-070>075-291300-
WESTERN AND SOUTH CENTRAL KENTUCKY

CITY           SKY/WX    TMP DP  RH WIND       PRES   REMARKS
PADUCAH        SUNNY     59  55  87 CALM      30.12R
HENDERSON      CLOUDY    55  54  94 NW3       30.11S
OWENSBORO      SUNNY     56  51  83 CALM      30.11R
HOPKINSVILLE   SUNNY     58  53  86 NW6       30.10R
BOWLING GREEN  SUNNY     59  48  67 N5        30.09R
GLASGOW        SUNNY     55  48  78 NW3       30.08R
$$

KYZ024-025-028>034-038-045-046-053-291300-
NORTH CENTRAL KENTUCKY

CITY           SKY/WX    TMP DP  RH WIND       PRES   REMARKS
LOUISVILLE/SDF MOSUNNY   58  50  75 NW8       30.07R
LOUISVILLE/LOU SUNNY     57  50  77 W3        30.08R
FORT KNOX      SUNNY     55  51  88 W6        30.07R
$$

KYZ035>037-039>044-047>052-055>060-089>105-291300-
NORTHEAST KENTUCKY

CITY           SKY/WX    TMP DP  RH WIND       PRES   REMARKS
LEXINGTON      SUNNY     54  50  86 NW5       30.05S
COVINGTON      MOSUNNY   54  50  86 NW8       30.04R
FRANKFORT      SUNNY     52  49  89 NW7       30.05R
$$

KYZ054-064>069-076>088-106>120-291300-
SOUTHEAST KENTUCKY

CITY           SKY/WX    TMP DP  RH WIND       PRES   REMARKS
JACKSON        CLOUDY    56  53  90 CALM      30.03R
LONDON         MOSUNNY   59  52  77 N7        30.05R
SOMERSET       SUNNY     57  50  77 N7        30.07R
MIDDLESBORO    CLOUDY    57  57 100 CALM      30.05R FOG
MONTICELLO     SUNNY     59  52  77 NW7       30.07R
$$




USA.gov is the U.S. government's official web portal to all federal, state and local government web resources and services.